{"data":{"norad_id":45145,"intl_designator":"2020-008Q","name":"ONEWEB-0038","alt_names":[],"object_type":"PAYLOAD","status":"ACTIVE","operator":null,"country":"UK","launch_date":"2020-02-06","launch_site_code":"TYMSC","launch_vehicle":null,"mission":null,"orbit_class":"UNKNOWN","rcs_meters":null,"size_class":null,"mass_kg":null,"dimensions":null,"purposes":["comms"],"wikipedia_slug":null,"has_3d_model":false,"image_url":null,"decayed_at":null,"tle_current":{"epoch":"2026-09-20T01:58:09.832800Z","epoch_age_seconds":47240,"freshness":"FRESH","line1":"1 45145U 20008Q   26263.08205825 -.00000445  00000+0 -12917-2 0  9994","line2":"2 45145  87.8981   2.2248 0002685  63.9063 296.2341 13.11417710322761","mean_motion":13.1141771,"eccentricity":0.0002685,"inclination_deg":87.8981,"raan_deg":2.2248,"arg_perigee_deg":63.9063,"mean_anomaly_deg":296.2341,"bstar":-0.0012917,"rev_number":32276,"period_min":109.80483098707,"perigee_km":1215.6402676232,"apogee_km":1219.719221215,"semimajor_km":7595.8167444191,"source":"CELESTRAK","updated_at":"2026-09-20T09:00:44.547598Z"}}}